Location: Gro�sch�nbrunn
(49.5760°N, 11.8868°E)
Time: 13:22:52
(UTC+00:00)

CZ-4 R/B - Visible Passes

Search period start: 16 January 2021 00:00
Search period end: 26 January 2021 00:00
Orbit: 533 x 597 km, 97.7° (Epoch: 15 January)

Date Brightness Start Highest point End Pass type
(mag) Time Alt. Az. Time Alt. Az. Time Alt. Az.
16 Jan 4.8 05:28:33 10° ENE 05:29:46 11° E 05:31:00 10° ESE visible
16 Jan 3.0 16:19:15 10° E 16:21:39 15° ENE 16:24:03 10° NNE visible
16 Jan 1.7 17:52:05 10° S 17:56:13 69° WSW 18:00:18 10° NNW visible
17 Jan 4.8 05:28:50 10° ENE 05:30:04 11° E 05:31:18 10° ESE visible
17 Jan 3.0 16:19:33 10° E 16:21:58 15° ENE 16:24:20 10° NNE visible
17 Jan 1.7 17:52:23 10° S 17:56:31 69° WSW 18:00:35 10° NNW visible
18 Jan 4.8 05:29:06 10° ENE 05:30:22 11° E 05:31:38 10° ESE visible
18 Jan 3.0 16:19:51 10° E 16:22:16 15° ENE 16:24:39 10° NNE visible
18 Jan 1.7 17:52:42 10° S 17:56:49 68° WSW 18:00:53 10° NNW visible
19 Jan 4.8 05:29:23 10° ENE 05:30:40 11° E 05:31:57 10° ESE visible
19 Jan 3.0 16:20:09 10° E 16:22:33 15° ENE 16:24:57 10° NNE visible
19 Jan 1.7 17:53:01 10° S 17:57:07 68° WSW 18:01:10 10° NNW visible
20 Jan 4.8 05:29:39 10° ENE 05:30:58 11° E 05:32:16 10° ESE visible
20 Jan 3.0 16:20:27 10° E 16:22:51 15° ENE 16:25:14 10° NNE visible
20 Jan 1.7 17:53:20 10° S 17:57:25 67° WSW 18:01:28 10° NNW visible
21 Jan 4.8 05:29:55 10° ENE 05:31:15 11° E 05:32:35 10° ESE visible
21 Jan 1.7 17:53:38 10° S 17:57:43 67° WSW 18:01:45 10° NNW visible
22 Jan 4.8 05:30:12 10° ENE 05:31:33 11° E 05:32:54 10° ESE visible
22 Jan 1.7 17:53:57 10° S 17:58:01 66° WSW 18:02:02 10° NNW visible
23 Jan 4.8 05:30:28 10° ENE 05:31:51 12° E 05:33:13 10° ESE visible
23 Jan 1.7 17:54:15 10° S 17:58:19 66° W 18:02:19 10° NNW visible
24 Jan 4.8 05:30:43 10° ENE 05:32:08 12° E 05:33:32 10° ESE visible
24 Jan 1.7 17:54:33 10° S 17:58:37 65° W 18:02:36 10° NNW visible
25 Jan 4.8 05:31:00 10° ENE 05:32:26 12° E 05:33:52 10° ESE visible
25 Jan 1.8 17:54:52 10° S 17:58:54 65° WSW 18:02:53 10° NNW visible
